Flag for U.S.A. Weather past 2 weeks in Butte, Montana, U.S.A.

Now
37 °F

Passing clouds.


Feels Like: 33 °F
Forecast: 29 / 49 °F
Wind: 5 mph from Northwest

Location: Mooney Airport

Current Time: May 6, 2015 at 7:29:14 AM

Latest Report: May 6, 2015 at 6:53 AM


Visibility: 10 mi

Pressure: 29.88 "Hg

Humidity: 60%

Dew point: 24 °F

Location of ButteLocation

Historic Weather in Butte — Graph

°F

Butte temperature yesterday

Maximum temperature yesterday: 61 °F (at 12:53 PM)
Minimum temperature yesterday: 36 °F (at 5:53 AM)
Average temperature yesterday: 47 °F

Past Weeks' High & Low Weather Summary

 TemperatureHumidityPressure
High71 °F (Apr 28, 4:53 PM)96% (Apr 26, 4:02 AM)30.42 "Hg (Apr 26, 4:02 AM)
Low25 °F (Apr 27, 5:53 AM)11% (May 4, 2:53 PM)29.59 "Hg (Apr 24, 2:53 AM)
Average46 °F54%29.91 "Hg
* Reported Apr 21 5:53 AM — May 6 5:53 AM, Butte, Weather by CustomWeather, © 2015

Note: Actual official high and low records may vary slightly from our data, if they occured in-between our weather recording intervals... More about our weather records

Advertising

Butte weather history for previous 24 hours

 ConditionsComfort  
Time TempWeatherWind HumidityBarometerVisibility
5:53 AM
Wed, May 6
38 °FOvercast.7 mph65%29.88 "Hg10 mi
4:53 AM39 °FMostly cloudy.6 mph60%29.88 "Hg10 mi
3:53 AM40 °FMostly cloudy.8 mph63%29.82 "Hg10 mi
2:53 AM41 °FLight rain. Mostly cloudy.3 mph76%29.83 "Hg10 mi
1:53 AM41 °FOvercast.No wind82%29.83 "Hg10 mi
12:53 AM40 °FMostly cloudy.7 mph80%29.82 "Hg10 mi
12:03 AM40 °FLight rain. Mostly cloudy.13 mph80%29.90 "Hg10 mi
11:53 PM
Tue, May 5
39 °FLight rain. Mostly cloudy.10 mph82%29.84 "Hg9 mi
11:04 PM42 °FLight rain. Mostly cloudy.17 mph76%29.91 "Hg9 mi
10:53 PM43 °FLight rain. Mostly cloudy.15 mph82%29.84 "Hg8 mi
9:53 PM44 °FLight rain. Mostly cloudy.12 mph82%29.82 "Hg10 mi
8:53 PM48 °FOvercast.13 mph74%29.81 "Hg10 mi
8:02 PM49 °FCloudy.7 mph84%29.85 "Hg10 mi
7:53 PM49 °FMostly cloudy.7 mph80%29.81 "Hg10 mi
6:53 PM50 °FPartly sunny.6 mph77%29.81 "Hg10 mi
5:53 PM50 °FMostly cloudy.No wind71%29.82 "Hg10 mi
5:03 PM46 °FRain. Fog.12 mph89%29.87 "Hg4 mi
4:53 PM46 °FRain. Fog.21 mph89%29.85 "Hg2 mi
3:53 PM57 °FMore clouds than sun.7 mph44%29.75 "Hg10 mi
2:53 PM57 °FPartly sunny.5 mph46%29.73 "Hg10 mi
1:53 PM59 °FBroken clouds.8 mph41%29.78 "Hg10 mi
12:53 PM61 °FPassing clouds.3 mph32%29.73 "Hg10 mi
11:53 AM59 °FSunny.No wind35%29.75 "Hg10 mi
10:53 AM55 °FSunny.3 mph40%29.77 "Hg10 mi
9:53 AM52 °FSunny.3 mph43%29.79 "Hg10 mi
8:53 AM46 °FSunny.No wind56%29.81 "Hg10 mi
7:53 AM39 °FSunny.No wind70%29.81 "Hg10 mi
Weather by CustomWeather, © 2015

See weather overviewHow to use our weather pages